Location: Huntsville
(41.2590°N, 111.7678°W)
Time: 10:56:57
(UTC+00:00)

S-56A Canister/Altair - Visible Passes

Search period start: 13 June 2021 00:00
Search period end: 23 June 2021 00:00
Orbit: 632 x 2500 km, 38.9° (Epoch: 12 June)

Date Brightness Start Highest point End Pass type
(mag) Time Alt. Az. Time Alt. Az. Time Alt. Az.
19 Jun 9.0 10:50:30 10° SSW 10:53:37 18° SSE 10:56:43 10° ESE visible
20 Jun 9.1 10:19:17 13° S 10:21:09 16° SSE 10:23:49 10° ESE visible
21 Jun 9.2 09:48:14 13° SSE 09:48:40 13° SSE 09:50:52 10° ESE visible
22 Jun 9.5 09:17:09 11° SE 09:17:09 11° SE 09:17:49 10° SE visible
22 Jun 7.8 11:14:55 10° SW 11:19:12 41° SSE 11:23:28 10° E visible
